Regional Weather Roundup
Issued by NWS Lake Charles, LA

Home | Current Version | Previous Version | Text Only | Print | Product List | Glossary On
Versions: 1 2 3 4 5 6 7 8 9 10 11 12 13 14 15 16 17 18 19 20 21 22 23 24 25 26 27 28 29 30 31 32 33 34 35 36 37 38 39 40 41 42 43 44 45 46 47 48 49 50
000
ASUS44 KLCH 300610
RWRLCH
RWRLCH
REGIONAL WEATHER ROUNDUP
NATIONAL WEATHER SERVICE LAKE CHARLES LA
100 AM CDT WED JUL 30 2014

Note: "fair" indicates few or no clouds below 12,000 feet with no
significant weather and/or obstructions to visibility.


ACROSS SOUTHEAST TEXAS

CITY           SKY/WX    TMP DP  RH WIND       PRES   REMARKS
BEAUMONT       CLEAR     74  70  87 CALM      30.04S
BEAUMONT CITY    N/A     73  71  94 CALM      30.05S
ORANGE         CLEAR     72  72 100 CALM      30.06S
JASPER         CLEAR     70  68  94 CALM      30.08S
$$

ACROSS CENTRAL LOUISIANA

CITY           SKY/WX    TMP DP  RH WIND       PRES   REMARKS
LEESVILLE      CLEAR     75  68  78 E7        30.07R
FULLERTON        N/A     75  68  78 CALM      30.05R
ALEXANDRIA INT CLEAR     75  68  78 E5        30.06R
ESLER FIELD    CLEAR     73  68  84 NE3       30.08R
DERIDDER         N/A     74  69  86 CALM      30.07S
OAKDALE        CLEAR     71  68  89 CALM      30.06S
OPELOUSAS        N/A     74  68  82 E3        30.06S
$$

ACROSS SOUTHWEST AND SOUTH CENTRAL LOUISIANA

CITY           SKY/WX    TMP DP  RH WIND       PRES   REMARKS
SULPHUR        CLEAR     73  72  95 NW3       30.05S
LAKE CHARLES   CLEAR     73  71  93 CALM      30.04S
CHENNAULT INT  CLEAR     75  70  83 CALM      30.05S
CAMERON PHI    CLEAR     77  68  73 E5        30.05S
DEQUINCY         N/A     71  69  96 CALM      30.05S
JENNINGS         N/A     74  69  82 CALM      30.04F
LAFAYETTE      PTCLDY    75  72  90 CALM      30.05S
NEW IBERIA     CLEAR     74  70  87 CALM      30.05S
ABBEVILLE        N/A     71  69  93 CALM      30.05S
PATTERSON      CLEAR     73  72  94 CALM      30.08F
SALT POINT       N/A     77  72  84 CALM      30.04S
$$

SELECTED SITES ACROSS THE REGION

CITY           SKY/WX    TMP DP  RH WIND       PRES   REMARKS
HOUSTON BUSH   PTCLDY    75  74  96 CALM      30.05S
HOUSTON HOBBY  PTCLDY    78  73  84 CALM      30.04S
GALVESTON      PTCLDY    81  73  76 CALM      30.05S
COLLEGE STAT   CLEAR     77  71  82 SE3       30.05F
CONROE         CLEAR     73  71  93 CALM      30.06F
HUNTSVILLE     MOCLDY    78  69  73 CALM      30.06S
LUFKIN         CLEAR     75  71  87 CALM      30.06S
SHREVEPORT     PTCLDY    74  65  73 E6        30.07R
MONROE         CLEAR     70  61  73 E5        30.08F
NATCHEZ MS     CLEAR     70  63  78 E3        30.09S
BATON ROUGE    CLEAR     73  67  81 NE5       30.06S
N.O. INTL ARPT PTCLDY    81  66  60 NE16      30.05R
SLIDELL        CLEAR     72  67  84 CALM      30.05S
$$

MARINE REPORTS

STATION/POSITION TIME  TEMP    WIND        PRES    VSBY  WAVE
                       AIR SEA DIR/SP/G                  HT/PER
                 (UTC) (F)     (DEG/KT/KT) (MB)    (MI)  (FT/S)
BUOY 30 S HIGH I NOT AVBL
SEA RIM ST PARK  0600   78      80/  5/  5 1017.8F
PORT ARTHUR      0600      88  100/  5/  7 1017.3R
SABINE PASS N    0600   80 87   70/  5/  7 1017.3R
TEXAS POINT      0600   84 87   80/ 11/ 12 1017.3S
CALCASIEU PASS   0600   80 87   90/  8/  8 1018.3R
LK CHARLES BEACH 0600   79 87              1018.1R
MARSH ISLAND     0500   83      50/  9/ 12   N/A
FRESH WATER LOCK 0600   76 87   40/  3/  3 1017.2F
AMERADA PASS     0600   77 84   40/  1/  3 1017.3S
$$


USA.gov is the U.S. government's official web portal to all federal, state and local government web resources and services.